{"data":{"norad_id":68177,"epoch":"2026-05-25T01:10:23.389248Z","epoch_age_seconds":81297,"freshness":"FRESH","line1":"1 68177U 26050L   26145.04888182  .00028192  00000+0  65441-3 0  9993","line2":"2 68177  53.1594 271.4060 0001143  73.0515 287.0616 15.42182565 12381","mean_motion":15.42182565,"eccentricity":0.0001143,"inclination_deg":53.1594,"raan_deg":271.406,"arg_perigee_deg":73.0515,"mean_anomaly_deg":287.0616,"bstar":0.00065441,"rev_number":1238,"period_min":93.37415897968,"perigee_km":438.88987285144,"apogee_km":440.44842333689,"semimajor_km":6817.8061480942,"source":"CELESTRAK","updated_at":"2026-05-25T13:38:21.854366Z"}}